TITAN 3C TRANSTAGE DEB, 1961

Orbit data source: Space-Track

TITAN 3C TRANSTAGE DEB, 1961 is space debris in LEO originally from a launch on Fri, 15 Oct 1965 UTC launched from the Air Force Eastern Test Range (AFETR). Debris objects in space refer to the collection of defunct objects orbiting the Earth. Examples of debris include non-operational satellites, rocket bodies, and fragments generated from explosions, collisions, or faulty payload assembly.

Loading next visibility...
Identifier
1961, 1965-082GW
Orbit
LEO
Country
Flag of USUS
Related business
Manufacturer
Unknown
Mission
Spacecraft
Bus & Motor
Unknown
Mass
Unknown
Launch date (UTC)
1965-10-15 (60 years ago)
Launch vehicle
Unknown
Launch site
Air Force Eastern Test Range (AFETR)
Object type
Payload
Rocket body
Debris
Shape & HBR
Unknown shape, 0.1 m
Radar Cross Section
Small (<0.1 m²)

Expand to show TLE details & history
Last TLE update: 14 hours ago

TLE from 14 hours ago
0 TITAN 3C TRANSTAGE DEB
1  1961U 65082GW  25354.22650104  .00005162  00000-0  27776-3 0  9993
2  1961  31.8584 359.7366 0003639 263.6178  96.4063 15.13484628216998
Epoch: 2025-12-20T05:26Z
TLE epoch observation values (Epoch: 2025-12-20T05:26:09.689Z)
Latitude
-0°
Longitude
-170.86011°
Altitude
524.456 km
Speed
7.603 km/s
True Right ascension
23h 58m 56s
True Declination
0° 00' 00"
Sunlit
Object was in daylight at epoch
Visualization orbit readout
Latitude
Unknown
Longitude
Unknown
Altitude
Unknown
Speed
Unknown
Apparent Right ascension
Unknown
Apparent Declination
Unknown
Sunlit
N/A
Visualization observer readout
Local Sidereal Time
18:26:30
Azimuth
Unknown
Elevation
Unknown
Doppler factor
Unknown
Orbital elements
Apogee altitude
531.816 km
Perigee altitude
526.789 km
Semi-major axis
6,907.439 km
Eccentricity
0.00036
Inclination
31.8584°
RAAN
359.7366°
Arg. of periapsis
263.6178°
True anomaly
96.44774°
Mean anomaly
96.4063°
Eccentric anomaly
96.42702°
Mean motion
3.78066 °/min
Orbital period
95.22 mins
BSTAR
0.00027776

Documentation

Showing up to 5 results
|